Regional Weather Roundup
Issued by NWS Charleston, WV

Home | Current Version | Previous Version | Graphics & Text | Print | Product List | Glossary On
Versions: 1 2 3 4 5 6 7 8 9 10 11 12 13 14 15 16 17 18 19 20 21 22 23 24 25 26 27 28 29
000
ASUS41 KRLX 282210
RWRRLX
West Virginia Regional Weather Roundup
National Weather Service Charleston WV
600 PM EDT THU APR 28 2016

Note: "fair" indicates few or no clouds below 12,000 feet with no
significant weather and/or obstructions to visibility.

WVZ003-282300-
Northern Panhandle of West Virginia

CITY           SKY/WX    TMP DP  RH WIND       PRES   REMARKS
WHEELING       CLOUDY    55  51  86 N6        29.88R FOG
$$

WVZ009-282300-
Northwest West Virginia

CITY           SKY/WX    TMP DP  RH WIND       PRES   REMARKS
PARKERSBURG    PTSUNNY   68  61  78 E8        29.84R
$$

WVZ006-282300-
Western West Virginia

CITY           SKY/WX    TMP DP  RH WIND       PRES   REMARKS
HUNTINGTON       N/A     76  56  49 W9        29.82R
$$

WVZ015-282300-
West Central West Virginia

CITY           SKY/WX    TMP DP  RH WIND       PRES   REMARKS
CHARLESTON     PTSUNNY   74  58  57 W8        29.83S
$$

WVZ022-031-282300-
North Central West Virginia

CITY           SKY/WX    TMP DP  RH WIND       PRES   REMARKS
CLARKSBURG     LGT RAIN  64  58  80 N17G26    29.84R
MORGANTOWN     TSTM      60  55  83 CALM      29.88R
$$

WVZ025-035-042-045-282300-
Southern West Virginia

CITY           SKY/WX    TMP DP  RH WIND       PRES   REMARKS
BECKLEY          N/A     74  51  44 W14G23    29.88F
LOGAN          NOT AVBL
BLUEFIELD      CLOUDY    70  52  52 NW9G18    29.91R
LEWISBURG      CLOUDY    71  53  52 W9        29.87R
$$

WVZ047-282300-
Northern Mountains of West Virginia

CITY           SKY/WX    TMP DP  RH WIND       PRES   REMARKS
ELKINS         LGT RAIN  65  59  81 S6        29.88R
$$

WVZ052-282300-
Eastern Panhandle of West Virginia

CITY           SKY/WX    TMP DP  RH WIND       PRES   REMARKS
MARTINSBURG    CLOUDY    47  45  93 N8        29.98R FOG
PETERSBURG     CLOUDY    55  53  92 N5        29.94R
$$




USA.gov is the U.S. government's official web portal to all federal, state and local government web resources and services.